Location: Melbourne
(37.8666°S, 145.1333°E)
Time: 06:41:48
(UTC+11:00)

Daily predictions for brighter satellites

Satellite Brightness Start Highest point End
(mag) Time Altitude Azimuth Time Altitude Azimuth Time Altitude Azimuth
Cosmos 1420 Rocket 4.1 20:57:33 10° SSW 21:02:57 75° ESE 21:08:17 10° NNE
Cosmos 2228 3.3 21:03:07 10° NNE 21:07:13 46° E 21:11:21 10° SSE
Helios 1B rocket 2.7 21:07:45 10° NNE 21:11:49 55° ESE 21:15:57 10° S
Cosmos 1939 Rocket 4.3 21:12:39 10° SE 21:15:45 20° E 21:18:47 10° NE
Cosmos 1452 Rocket 4.0 21:11:06 10° SSW 21:16:20 62° WNW 21:21:31 10° N
Cosmos 2333 Rocket 2.4 21:11:32 10° SSW 21:17:15 77° WNW 21:22:55 10° NNE
ARGOS Delta rocket 4.4 21:12:59 10° N 21:18:22 75° W 21:23:57 10° SSW
Genesis I 3.3 21:15:46 10° SSW 21:19:35 63° ESE 21:23:18 10° NE
COSMOS 2428 4.1 21:14:55 10° SW 21:20:08 37° WNW 21:25:17 10° N
SJ-6B 2.8 21:16:09 10° SSE 21:20:10 81° ENE 21:24:13 10° N
BREEZE-M DEB 3.4 21:17:59 10° SW 21:20:12 76° SE 21:22:32 12° ENE
GPS 2-05 Rocket1 2.7 21:18:28 10° WNW 21:21:35 56° N 21:24:46 10° E
Cosmos 2292 Rocket 3.2 21:21:19 10° N 21:24:38 63° E 21:28:54 10° SSE
Resurs 1-3 4.3 21:21:03 10° SSE 21:25:08 35° E 21:29:10 10° NNE
Cosmos 1953 Rocket 3.7 21:23:00 10° S 21:27:28 80° W 21:31:55 10° N
Cosmos 921 Rocket 3.4 21:23:48 10° SSW 21:28:20 68° WNW 21:32:46 10° N
Lacrosse 5 3.3 21:24:26 10° WNW 21:29:19 43° SW 21:34:15 10° SSE
H-2A R/B 4.4 21:25:54 10° S 21:29:36 39° WSW 21:33:11 10° NW
USA 186 2.0 21:28:52 10° SSE 21:31:57 46° E 21:34:58 10° N
Cosmos 2219 Rocket 3.1 21:26:57 10° SW 21:32:21 46° WNW 21:37:39 10° N
USA 238 DEB 4.1 21:26:21 10° N 21:33:11 47° ENE 21:40:00 10° SE
USA 238 4.1 21:26:28 10° N 21:33:17 46° ENE 21:40:06 10° SE
OAO 3 Rocket 3.6 21:29:20 10° NW 21:34:00 44° NNE 21:38:46 10° E
USA 215 4.1 21:29:57 10° ESE 21:35:23 27° NE 21:40:45 10° N
Cosmos 2082 3.9 21:32:16 10° NNW 21:37:58 82° WSW 21:43:46 10° SSE
Cosmos 1707 4.1 21:34:42 10° SSW 21:38:25 39° W 21:42:04 10° NNW
Cosmos 1709 Rocket 4.3 21:33:18 10° NNE 21:39:27 51° E 21:45:37 10° SSE
YAOGAN 6 3.2 21:40:01 10° SSE 21:43:25 35° E 21:46:01 15° NNE
Cosmos 2237 Rocket 2.5 21:43:08 10° SSW 21:48:49 68° WNW 21:54:19 11° N
Cosmos 2227 Rocket 3.2 21:44:45 10° NW 21:50:13 50° WSW 21:55:47 10° SSE
Cosmos 1242 Rocket 2.6 21:47:02 10° N 21:50:39 60° E 21:54:22 10° SSE
Meteor 1-29 3.6 21:51:14 10° N 21:54:34 54° W 21:58:00 10° SSW
Spot 2 Rocket 3.5 21:52:52 10° SSE 21:58:01 63° ENE 22:03:06 10° N
ATLAS 5 CENTAUR R/B 2.4 21:55:21 10° SW 22:00:18 51° WNW 22:03:50 16° N
Resurs 01 Rocket 1.6 21:56:24 10° SSE 22:00:56 89° WSW 22:05:25 10° NNW
DMSP B5D2-2 4.1 21:56:24 14° NNE 22:01:00 84° ESE 22:06:23 10° SSW
NOSS 3-2 (A) 4.3 21:56:04 10° N 22:03:47 45° ENE 22:11:03 10° SE
Cosmos 1331 Rocket 4.1 21:59:31 10° SSW 22:04:53 68° ESE 22:08:22 22° NNE
Cosmos 1110 Rocket 4.0 22:00:38 10° SSW 22:06:02 80° ESE 22:09:43 21° NNE
Cosmos 1953 2.5 22:08:01 23° NNE 22:10:22 53° E 22:14:25 10° SSE
Cosmos 2251 Rocket 3.4 22:09:14 10° N 22:14:27 75° ENE 22:19:46 10° SSE
ATLAS 3B R/B 2.7 22:09:50 10° NNW 22:16:30 89° WSW 22:23:32 10° SSE
Cosmos 2297 Rocket 3.8 22:11:50 10° NW 22:17:03 36° WSW 22:22:19 10° S
Tiangong 1 1.9 22:21:24 10° W 22:23:51 40° SSW 22:25:18 19° SE
Cosmos 1758 3.5 22:23:29 18° NNW 22:26:25 74° W 22:30:29 10° S
Cosmos 724 4.4 22:20:45 10° NNW 22:26:45 83° WSW 22:32:56 10° SSE
ERBS 2.3 22:26:40 10° SW 22:30:14 87° NW 22:31:02 51° NE
Cosmos 2227 4.2 22:30:25 18° N 22:34:35 63° ENE 22:40:11 10° SSE
CZ-2C R/B 3.7 22:33:47 25° ENE 22:36:03 33° ESE 22:41:06 10° S
Cosmos 1400 Rocket 3.8 22:33:26 10° SSE 22:37:06 32° ESE 22:37:35 31° E
Cosmos 1461 4.5 22:34:31 10° S 22:37:36 21° SE 22:38:44 19° ESE
SME Rocket 4.5 22:30:14 10° SSE 22:39:06 58° E 22:42:20 29° NNE
Cosmos 2184 Rocket 4.1 22:35:44 27° NNE 22:39:18 61° E 22:45:40 10° SSE
Cosmos 1812 Rocket 4.5 22:38:35 12° NNW 22:42:30 48° W 22:46:52 10° S
SL-16 R/B 2.6 22:38:38 10° SSW 22:44:14 57° WNW 22:47:12 27° N
SPOT 5 4.1 22:42:17 10° SE 22:46:58 29° E 22:47:24 29° ENE
ARGOS 3.4 22:44:05 10° SSE 22:49:23 49° E 22:50:51 39° NE
Cosmos 1076 Rocket 3.5 22:47:17 10° S 22:51:35 63° E 22:52:20 53° NE
Cosmos 1470 3.1 22:51:08 33° NNW 22:52:45 64° W 22:56:47 10° S
Cosmos 1603 4.0 22:47:16 10° SSW 22:52:49 55° ESE 22:54:45 37° ENE
Lacrosse 4 Rocket 1.7 22:49:09 10° SSW 22:53:40 63° ESE 22:54:38 49° ENE
SL-08 RB Rocket 4.1 22:50:08 10° SSE 22:54:41 45° E 22:55:07 43° ENE
Cosmos 2263 Rocket 2.8 22:54:18 35° ENE 22:54:47 36° ENE 22:59:56 10° SE
H-2A R/B 2.6 22:51:29 10° SSE 22:56:44 43° E 22:57:39 40° NE
Cosmos 2327 Rocket 4.4 22:54:24 33° N 22:57:19 76° E 23:03:30 10° S
Cosmos 1733 4.2 22:55:27 25° NW 22:57:23 44° W 23:01:12 10° S
Cosmos 1315 Rocket 4.1 22:55:06 10° SSE 22:58:44 28° ESE 22:58:44 28° ESE
GPS 2-05 Rocket1 4.4 22:55:49 10° W 22:57:24 24° WNW 22:57:24 24° WNW
CENTAUR R/B 3.6 22:59:16 32° NE 23:00:22 33° ENE 23:06:49 10° SE
Okean 3 Rocket 3.5 22:56:40 10° S 23:01:09 89° W 23:02:04 56° N
Cosmos 1328 4.5 22:57:33 10° S 23:01:18 40° ESE 23:01:18 40° ESE
Meteor 2-8 Rocket 4.4 22:56:02 10° S 23:02:14 85° E 23:04:39 39° N
Helios 1A 2.9 22:58:13 10° SSE 23:02:31 79° ENE 23:03:12 61° N
Cosmos 1674 4.3 23:00:50 10° SSW 23:04:15 30° W 23:05:37 24° NW
Cosmos 1408 Rocket 4.0 23:03:06 10° S 23:07:30 47° E 23:07:46 46° E
BREEZE-M DEB (TANK) 2.7 23:06:01 10° SW 23:08:33 59° SE 23:09:29 45° E
SL-19 R/B 4.4 23:07:10 39° N 23:09:37 81° WNW 23:15:31 10° SSW
MetOp-A 4.0 23:04:48 10° SSE 23:10:16 86° ENE 23:12:14 41° N
Meteor 1-16 Rocket 4.0 23:12:02 51° NNE 23:13:24 76° E 23:18:47 10° SSE
Meteor 2-19 Rocket 4.4 23:14:05 34° NNW 23:16:55 80° W 23:23:07 10° S
OAO 3 Rocket 3.2 23:12:24 10° W 23:17:20 64° N 23:17:23 64° N
Cosmos 1766 Rocket 3.5 23:13:58 10° S 23:18:32 74° E 23:18:48 71° ENE
USA 215 3.4 23:12:05 10° SE 23:18:42 76° SW 23:25:17 10° NW
SL-14 R/B 3.3 23:15:16 10° SSW 23:19:13 72° W 23:19:14 72° W
Cosmos 1610 Rocket 4.5 23:18:51 39° N 23:21:29 89° W 23:27:57 10° S
Terra 3.3 23:18:20 10° SE 23:21:21 23° ESE 23:21:21 23° ESE
Cosmos-2242 2.8 23:22:25 80° NNW 23:22:38 87° W 23:26:59 10° S
Nadezhda 3 Rocket 4.0 23:17:46 10° S 23:24:01 64° E 23:25:30 49° NE
H-2A R/B 3.2 23:04:54 10° W 23:25:09 44° NNW 23:26:29 40° N
deb Chang Zheng 4 3.5 23:26:32 71° E 23:26:33 71° ESE 23:30:56 10° S
ERS-1 Rocket 3.1 23:23:12 10° S 23:28:18 70° WSW 23:29:53 44° NW
Cosmos 1943 3.4 23:24:04 10° SSW 23:29:46 60° ESE 23:30:54 50° ENE
Cosmos 1842 Rocket 4.3 23:32:31 41° ESE 23:32:31 41° ESE 23:36:10 10° SSE
Cosmos 1703 4.3 23:31:01 10° S 23:34:03 38° SE 23:34:03 38° SE
Cosmos 407 Rocket 3.9 23:35:49 49° E 23:35:49 49° E 23:40:47 10° SSE
Cosmos 1809 Rocket 4.4 23:39:01 57° NNE 23:40:08 70° E 23:46:15 10° SSE
CZ-4B R/B 3.5 23:42:57 64° NW 23:43:28 69° WNW 23:48:35 10° SSW
USA 267 4.3 23:44:37 17° E 23:49:07 40° SSE 23:55:10 10° SSW
IGS 5A 4.5 23:46:36 10° SSE 23:49:31 38° SE 23:49:31 38° SE
NOSS 2-1 (C) 4.3 23:44:21 10° SW 23:51:25 64° WNW 23:52:06 59° NNW
Cosmos 1844 Rocket 4.4 23:52:51 20° E 23:52:51 20° E 23:55:41 10° SE
NOSS 2-1 (D) 4.3 23:44:39 10° SW 23:51:38 62° WNW 23:52:17 58° NNW
CARTOSAT-1 4.3 23:49:21 10° SSE 23:52:44 46° SE 23:52:44 46° SE
